Regional Weather Roundup
Issued by NWS Little Rock, AR

Home | Current Version | Previous Version | Graphics & Text | Print | Product List | Glossary On
Versions: 1 2 3 4 5 6 7 8 9 10 11 12 13 14 15 16 17 18 19 20 21 22 23 24 25 26 27 28 29 30 31 32 33 34 35 36 37 38 39 40 41 42 43 44 45 46 47 48 49 50
000
ASUS44 KLZK 272305
RWRLZK

WEATHER ROUNDUP FOR ARKANSAS
NATIONAL WEATHER SERVICE LITTLE ROCK AR
600 PM CDT SUN JUL 27 2014

NOTE: "FAIR" INDICATES FEW OR NO CLOUDS BELOW 12,000 FEET WITH NO
SIGNIFICANT WEATHER AND/OR OBSTRUCTIONS TO VISIBILITY.

ARZ001-003-010-029-280000-
NORTHWEST ARKANSAS

CITY           SKY/WX    TMP DP  RH WIND       PRES   REMARKS
FAYETTEVILLE   PTSUNNY   88  64  44 N8G17     30.05S HX  89
FORT SMITH     CLOUDY    94  75  54 NW10      29.98R HX 105
HARRISON       PTSUNNY   85  70  60 NW8       30.05S HX  89
BENTONVILLE    PTSUNNY   86  55  35 N9G16     30.09S
ROGERS         PTSUNNY   84  62  47 N6        30.08F HX  85
SILOAM SPGS    PTSUNNY   84  63  48 N10       30.08R HX  85
HIGHFILL       PTSUNNY   87  60  40 N14       30.07S HX  87
SPRINGDALE     PTSUNNY   90  63  40 N14       30.09R HX  90
$$

ARZ004-005-016-280000-
NORTH CENTRAL ARKANSAS

CITY           SKY/WX    TMP DP  RH WIND       PRES   REMARKS
BATESVILLE     PTSUNNY   88  75  66 W6        29.96R HX  97
FLIPPIN        CLOUDY    88  73  62 W12       29.99F HX  96
MTN HOME       CLOUDY    85  75  72 CALM      29.99S HX  93
$$

ARZ040-041-280000-
WEST CENTRAL ARKANSAS

CITY           SKY/WX    TMP DP  RH WIND       PRES   REMARKS
MENA           CLOUDY    95  77  55 CALM      30.02S HX 109
MOUNT IDA      CLOUDY    88  80  77 CALM      29.98S HX 104
$$

ARZ009-017-025-026-028-280000-
NORTHEAST ARKANSAS

CITY           SKY/WX    TMP DP  RH WIND       PRES   REMARKS
CORNING        LGT RAIN  90  77  66 W13       29.91R HX 102
JONESBORO      MOSUNNY   84  79  85 W7        29.92R HX  96
NEWPORT        MOSUNNY   92  78  63 NW7       29.94S HX 107
WALNUT RIDGE   PTSUNNY   88  75  66 W7        29.91S HX  97
BLYTHEVILLE    CLOUDY    89  78  70 W13G21    29.90S HX 103
$$

ARZ022-023-033-042-044-280000-
CENTRAL ARKANSAS

CITY           SKY/WX    TMP DP  RH WIND       PRES   REMARKS
LITTLE ROCK    PTSUNNY   92  77  61 SW7       29.95S HX 105
N LITTLE ROCK  PTSUNNY   90  81  73 SW5       29.95S HX 109
JACKSONVILLE   PTSUNNY   94  80  65 SW10      29.95S HX 113
SEARCY         PTSUNNY   96  78  56 W6        29.95R HX 112
HOT SPRINGS    PTSUNNY   92  77  61 W9        29.98S HX 105
RUSSELLVILLE   MOSUNNY   93  76  57 W5        29.96S HX 105
CLINTON        FAIR      91  79  66 NW3       29.98R HX 107
$$

ARZ036-280000-
EAST ARKANSAS

CITY           SKY/WX    TMP DP  RH WIND       PRES   REMARKS
WEST MEMPHIS   PTSUNNY   89  80  74 SW6       29.92S HX 106
$$

ARZ050-053-066-070-073-280000-
SOUTHWEST ARKANSAS

CITY           SKY/WX    TMP DP  RH WIND       PRES   REMARKS
ARKADELPHIA    FAIR      93  79  63 SW6       29.97S HX 110
CAMDEN         MOSUNNY   93  73  52 SW6       29.97S HX 102
TEXARKANA      SUNNY     95  72  47 W9        29.99S HX 103
EL DORADO      SUNNY     92  73  53 SW7       29.99S HX 100
DE QUEEN       PTSUNNY   92  78  63 W7        29.96S HX 107
$$

ARZ056-057-069-280000-
SOUTHEAST ARKANSAS

CITY           SKY/WX    TMP DP  RH WIND       PRES   REMARKS
PINE BLUFF     PTSUNNY   91  76  61 SW9       29.96S HX 103
STUTTGART      PTSUNNY   93  79  62 SW12      29.96S HX 110
MONTICELLO     MOSUNNY   92  73  53 SW6       29.97S HX 100

$$




USA.gov is the U.S. government's official web portal to all federal, state and local government web resources and services.